EHI
0 0 0 0 0 0 0 0 0 0 0 0 1 4 7 10 14 16 17 18 19 21 24 27 29 28 28 26 22 17 14 10 7 8 9 10 10 9 7 6 6 6 6 6
0 0 0 0 0 0 0 0 0 0 0 1 2 4 7 11 13 13 13 15 17 19 21 24 26 26 25 24 20 16 13 9 7 7 9 9 10 9 7 6 6 6 6 6
0 0 0 0 0 0 0 0 0 0 1 2 3 4 6 9 11 11 11 14 16 17 17 18 20 21 21 20 17 14 11 8 6 6 7 8 9 8 6 5 5 6 6 6
0 0 0 0 0 0 0 1 1 2 3 5 6 7 8 7 8 9 10 12 15 15 14 14 15 16 16 16 15 12 9 6 5 6 7 7 7 7 6 5 5 5 5 5
0 0 0 0 0 0 1 2 3 5 7 10 12 12 11 8 6 6 7 9 12 12 12 13 14 13 13 13 12 10 7 5 5 7 7 6 5 4 4 4 4 4 4 4
0 0 0 0 0 0 1 2 3 6 10 13 13 12 10 7 6 5 5 5 7 8 9 11 12 12 11 10 8 7 5 4 5 7 7 5 3 2 2 2 3 3 3 3
0 0 0 1 1 1 0 1 4 6 10 11 9 9 8 7 8 6 4 3 3 4 5 6 7 8 8 8 7 5 4 4 4 5 4 2 1 1 1 1 1 2 2 2
0 0 1 2 2 1 1 3 6 8 9 9 9 9 9 9 9 6 4 2 1 1 1 2 4 5 5 6 6 5 4 4 3 2 1 0 0 0 0 0 0 1 1 1
1 1 1 2 2 2 3 6 8 9 9 9 11 11 11 9 7 5 4 2 0 0 0 1 2 3 4 5 6 6 5 3 2 1 0 0 0 0 0 0 0 0 0 0
3 2 2 2 3 4 6 7 8 8 9 10 11 11 9 7 4 3 3 2 0 0 0 0 1 2 2 3 4 5 4 2 1 0 0 0 0 0 0 0 0 0 0 0
2 2 2 2 3 4 7 7 7 7 9 11 11 9 7 4 2 1 1 1 0 0 0 0 0 1 1 1 2 3 2 1 0 0 0 0 0 0 0 0 0 0 0 0
1 0 1 2 2 4 6 6 5 7 9 11 11 9 5 2 0 0 0 0 0 0 0 0 0 0 0 0 1 1 1 0 0 0 0 0 0 0 0 0 0 0 0 0
0 0 0 1 2 4 5 5 4 5 7 8 8 7 5 2 0 0 0 0 0 0 0 0 0 0 0 0 0 0 0 0 0 0 0 0 0 0 0 0 0 0 0 0
0 0 0 1 2 4 5 5 4 4 4 4 4 4 3 2 0 0 0 0 0 0 0 0 0 0 0 0 0 0 0 0 0 0 0 0 0 0 0 0 0 0 0 0
0 0 0 0 1 3 3 3 2 2 3 2 2 2 2 1 0 0 0 0 0 0 0 0 0 0 0 0 0 0 0 0 0 0 0 0 0 0 0 0 0 0 0 0
0 0 0 0 1 1 1 1 0 1 1 1 1 1 1 0 0 0 0 0 0 0 0 0 0 0 0 0 0 0 0 0 0 0 0 0 0 0 0 0 0 0 0 0
0 0 0 0 0 0 0 0 0 0 0 0 0 0 0 0 0 0 0 0 0 0 0 0 0 0 0 0 0 0 0 0 0 0 0 0 0 0 0 0 0 0 0 0
0 0 0 0 0 0 0 0 0 0 0 0 0 0 0 0 0 0 0 0 0 0 0 0 0 0 0 0 0 0 0 0 0 0 0 0 0 0 0 0 0 0 0 0
0 0 0 0 0 0 0 0 0 0 0 0 0 0 0 0 0 0 0 0 0 0 0 0 0 0 0 0 0 0 0 0 0 0 0 0 0 0 0 0 0 0 0 0
0 0 0 0 0 0 0 0 0 0 0 0 0 0 0 0 0 0 0 0 0 0 0 0 0 0 0 0 0 0 0 0 0 0 0 0 0 0 0 0 0 0 0 0
0 0 0 0 0 0 0 0 0 0 0 0 0 0 0 0 0 0 0 0 0 0 0 0 0 0 0 0 0 0 0 0 0 0 0 0 0 0 0 0 0 0 0 0
0 0 0 0 0 0 0 0 0 0 0 0 0 0 0 0 0 0 0 0 0 0 0 0 0 0 0 0 0 0 0 0 0 0 0 0 0 0 0 0 0 0 0 0
0 0 0 0 0 0 0 0 0 0 0 0 0 0 0 0 0 0 0 0 0 0 0 0 0 0 0 0 0 0 0 0 0 0 0 0 0 0 0 0 0 0 0 0
0 0 0 0 0 0 0 0 0 0 0 0 0 0 0 0 0 0 0 0 0 0 0 0 0 0 0 0 0 0 0 0 0 0 0 0 0 0 0 0 0 0 0 0
0 0 0 0 0 0 0 0 0 0 0 0 0 0 0 0 0 0 0 0 0 0 0 0 0 0 0 0 0 0 0 0 0 0 0 0 0 0 0 0 0 0 0 0
0 0 0 0 0 0 0 0 0 0 0 0 0 0 0 0 0 0 0 0 0 0 0 0 0 0 0 0 0 0 0 0 0 0 0 0 0 0 0 0 0 0 0 0
0 0 0 0 0 0 0 0 0 0 0 0 0 0 0 0 0 0 0 0 0 0 0 0 0 0 0 0 0 0 0 0 0 0 0 0 0 0 0 0 0 0 0 0
Wind_Speed
4 3 4 4 5 7 6 9 9 9 8 9 8 6 4 4 4 5 4 5 5 5 5 4 4 4 4 4 3 4 4 3 3 3 4 4 4 3 3 3 3 2 2 2
1 1 2 2 3 6 5 5 5 4 7 5 2 4 4 4 5 5 5 5 5 6 6 5 4 4 4 4 4 4 5 4 4 4 4 4 4 3 3 3 3 3 2 2
2 1 3 1 4 5 4 4 6 8 7 3 4 6 7 6 6 5 5 4 5 5 5 5 4 5 5 5 5 5 5 5 4 4 4 3 4 4 3 3 3 4 3 3
3 3 3 6 2 3 4 2 4 4 3 5 5 4 3 4 6 6 5 5 5 6 6 5 5 6 6 6 6 6 5 5 5 5 4 4 4 4 3 3 3 4 4 4
4 4 2 3 1 2 4 3 3 4 4 6 7 6 3 1 4 5 6 6 6 6 6 7 7 7 7 7 6 6 5 5 4 4 5 5 5 4 4 5 5 5 5 5
5 5 5 6 2 1 3 3 3 5 7 8 7 4 3 3 5 7 7 7 7 8 8 8 7 7 8 7 6 5 5 5 5 5 5 5 5 5 5 6 6 6 6 6
4 3 5 4 2 2 5 7 3 5 7 8 5 5 6 8 7 7 8 8 8 8 7 6 6 8 8 8 6 5 5 6 6 6 6 6 6 5 6 7 7 7 7 7
4 3 6 2 1 5 5 1 2 4 5 7 7 8 10 10 9 9 9 9 8 8 7 5 6 8 8 7 5 6 7 7 7 7 6 6 6 6 6 7 7 7 7 7
5 6 3 1 2 2 1 2 2 4 6 9 9 9 10 9 9 9 8 8 7 8 8 6 6 6 7 5 5 7 8 8 7 8 7 6 6 6 6 6 5 5 5 5
0 2 2 2 2 1 2 2 2 5 7 8 9 10 10 9 8 8 8 8 7 8 8 6 6 6 6 5 6 8 9 7 7 7 7 7 6 5 5 5 5 5 5 5
0 2 2 3 2 1 3 5 6 6 6 8 10 10 10 9 8 7 7 6 6 7 7 6 6 6 6 6 7 9 8 7 7 7 7 8 8 7 6 6 4 5 5 4
4 4 3 1 2 2 4 5 7 8 8 7 9 10 9 8 7 8 7 7 7 7 7 6 6 6 5 5 6 8 7 7 6 6 6 6 8 9 15 12 14 13 10 8
3 1 2 1 1 2 4 5 7 8 9 9 8 9 9 8 7 8 8 8 7 7 7 7 6 6 5 5 6 7 7 6 6 6 6 6 6 7 8 11 16 16 14 13
2 3 2 1 2 4 6 8 8 8 8 9 9 9 9 9 8 8 8 7 8 8 7 7 7 6 5 6 7 8 7 8 7 6 6 6 6 6 7 7 7 7 10 13
1 3 3 4 5 6 7 9 10 9 9 9 9 9 9 9 9 8 7 7 8 8 7 7 7 6 5 6 8 8 7 6 6 6 6 7 7 7 7 8 7 6 6 7
3 4 5 7 7 7 8 9 10 9 9 9 9 8 9 10 9 8 7 7 8 7 6 7 6 5 6 7 8 7 7 11 9 7 7 7 7 7 7 7 6 6 6 4
5 4 6 7 6 6 6 6 8 9 9 9 9 9 10 10 10 8 7 7 7 7 6 6 6 6 6 7 7 7 7 8 11 8 6 6 6 7 6 6 6 6 5 4
4 5 7 8 8 7 7 7 8 9 9 9 10 10 10 10 9 8 8 8 9 8 6 5 5 7 7 7 6 6 6 6 6 6 6 6 6 6 6 6 7 7 5 5
5 6 7 7 7 8 8 8 8 8 8 9 10 9 8 8 8 8 8 8 8 7 4 4 7 8 7 7 8 6 7 8 7 6 6 8 7 6 6 6 6 5 5 5
6 7 8 8 8 8 8 8 9 8 8 9 10 10 9 8 8 8 8 7 4 3 4 6 7 6 6 7 9 6 7 8 7 7 6 6 6 6 5 6 6 5 5 4
7 8 8 9 8 8 8 9 9 9 8 8 10 10 9 8 7 7 8 6 3 4 6 8 6 5 5 7 8 7 7 7 7 6 6 6 6 6 5 5 5 5 4 4
7 7 8 9 9 8 7 7 8 9 9 9 9 10 10 9 8 7 6 4 4 6 6 5 5 7 8 8 6 7 7 7 6 6 5 5 5 5 5 5 4 4 4 3
6 7 8 8 9 9 8 8 8 9 9 9 9 9 9 7 5 7 5 3 4 7 6 5 8 11 11 7 6 6 7 7 6 5 5 5 5 5 5 5 4 4 3 3
7 7 8 8 9 10 9 8 8 8 9 8 7 8 8 7 5 4 5 7 8 9 6 7 11 11 9 6 6 6 6 6 5 5 5 5 4 4 4 4 4 3 3 3
8 8 9 9 9 7 8 9 10 9 9 7 8 7 5 5 6 5 6 7 9 9 7 7 10 9 6 5 6 5 5 5 5 5 5 4 4 4 4 4 4 3 3 3
7 6 6 6 6 7 7 7 7 6 7 7 6 5 6 6 7 6 6 7 8 8 6 5 5 6 5 5 5 5 5 5 5 5 4 4 5 4 4 3 4 3 3 2
8 7 7 7 6 6 6 6 7 6 6 7 7 5 6 6 6 6 7 6 6 6 5 4 4 4 5 5 5 5 4 4 4 4 4 4 4 4 4 4 3 3 2 2
Wind_Direction
208 211 171 179 181 169 165 173 175 216 220 237 223 204 184 159 143 129 135 139 143 143 136 127 128 130 130 124 117 125 129 134 141 136 132 134 140 146 148 147 146 147 151 154
242 249 165 165 196 180 180 174 193 200 240 242 187 144 142 150 146 145 148 148 143 137 133 134 136 130 117 104 100 105 111 112 111 113 119 126 128 126 125 125 122 115 116 119
215 276 89 252 225 188 183 185 173 197 224 169 156 167 169 164 154 153 148 141 135 131 127 124 126 120 110 100 97 99 100 97 99 108 116 125 127 119 122 122 116 105 96 93
138 101 189 242 245 180 167 204 212 220 206 169 164 136 113 138 146 143 135 130 122 114 110 101 98 99 98 98 100 99 98 96 97 104 107 108 111 111 115 114 108 98 95 94
126 144 227 277 244 161 166 248 229 190 149 130 125 90 47 66 126 135 130 125 116 110 110 105 103 105 105 101 99 96 93 90 89 100 105 102 101 102 99 99 92 87 85 85
126 138 200 230 235 229 124 276 240 171 159 153 134 130 204 146 112 111 109 109 110 106 104 105 107 111 107 103 98 92 87 84 82 87 97 97 92 89 89 94 93 90 79 70
138 164 242 247 277 117 159 229 206 169 164 160 162 169 146 130 113 110 107 104 103 100 97 101 109 110 106 101 95 89 87 85 81 81 86 89 88 90 95 95 92 86 80 68
141 157 237 285 121 173 207 206 138 145 147 137 119 113 120 122 119 115 110 103 101 98 91 86 96 106 105 100 96 94 90 86 81 76 79 85 90 87 89 97 96 89 83 71
178 202 248 291 227 258 182 152 155 136 133 128 120 121 119 118 116 112 110 105 102 103 95 81 80 99 108 103 102 98 91 86 84 80 74 74 82 87 85 86 92 91 90 84
80 300 314 324 336 17 89 111 105 120 126 126 124 124 120 117 114 111 109 109 109 107 102 92 83 87 99 102 101 100 96 91 87 86 78 70 66 68 78 82 93 97 97 94
105 279 349 5 8 53 80 90 95 97 107 122 122 122 122 122 120 115 109 104 105 110 109 105 100 95 95 100 106 103 99 96 93 89 89 79 69 56 62 53 74 100 99 100
203 214 177 258 314 80 91 102 112 109 103 110 120 121 118 118 116 114 112 108 106 106 107 107 104 99 96 102 112 112 107 102 101 101 96 95 93 75 57 64 64 67 77 91
197 159 145 187 7 87 106 112 113 114 119 114 110 115 115 113 109 109 108 110 114 112 110 109 105 102 101 106 110 111 114 113 108 106 105 102 100 101 91 67 59 59 64 77
144 120 102 120 114 99 108 104 99 98 101 108 113 112 110 109 109 109 111 114 113 110 108 107 106 103 103 108 110 108 108 107 108 106 105 103 101 99 99 100 87 63 54 66
88 144 145 122 107 107 111 110 106 104 104 104 109 112 115 114 111 108 108 110 108 105 106 106 103 99 100 107 109 110 110 109 105 102 100 100 100 98 96 96 96 93 85 67
104 106 118 123 122 124 121 121 120 119 115 112 111 112 113 111 107 103 102 106 108 107 106 106 104 104 105 107 106 102 103 110 108 107 105 103 101 100 100 100 98 95 90 85
142 143 139 136 135 129 125 127 127 126 122 117 116 116 113 110 105 100 96 95 97 97 98 103 106 108 108 110 110 110 110 111 109 105 104 107 107 108 108 106 103 96 83 73
169 161 151 148 145 133 122 120 120 122 123 121 120 117 117 119 118 115 111 105 96 85 76 87 102 105 103 106 109 111 112 111 110 110 107 107 108 109 109 108 108 103 93 83
124 125 125 126 128 127 127 127 122 118 119 121 119 116 114 114 116 113 110 105 104 99 83 89 103 102 103 108 109 109 113 114 111 108 109 110 107 108 111 112 112 109 107 101
114 116 117 117 117 120 125 124 120 117 118 119 115 113 111 112 114 111 103 93 88 110 119 112 105 101 103 108 109 111 115 117 117 116 114 114 114 113 113 115 115 114 111 108
116 117 120 119 114 112 119 122 122 121 118 117 119 121 118 114 111 111 108 98 75 95 106 106 102 103 104 111 108 111 114 115 116 117 118 118 116 115 116 117 119 120 119 118
121 118 117 117 116 112 111 114 117 118 115 112 113 117 116 112 106 95 85 102 112 110 105 102 104 110 112 111 109 112 114 115 116 116 119 122 125 127 127 126 126 125 125 130
118 117 119 120 120 115 107 109 114 118 119 120 122 122 118 115 116 117 109 101 108 108 104 107 114 114 111 107 110 113 117 120 123 125 127 128 131 133 133 133 134 135 136 139
113 113 114 115 114 112 110 106 106 107 107 105 108 115 118 112 91 80 106 115 111 106 101 110 114 115 112 109 111 113 117 121 123 125 126 126 128 132 135 137 139 141 142 147
112 114 117 119 116 115 114 111 106 104 102 99 96 94 95 103 113 113 110 114 115 108 103 107 111 113 110 111 113 116 119 123 128 131 133 136 139 141 144 146 149 149 151 158
110 112 112 111 115 119 120 117 114 114 113 107 96 93 94 93 101 104 104 109 111 109 108 108 110 109 108 111 115 120 121 124 126 128 135 138 142 144 147 151 156 158 160 167
100 100 100 98 97 106 113 116 119 120 120 119 113 107 107 106 106 109 111 112 112 109 107 106 108 110 112 114 116 117 118 121 126 131 135 138 144 149 154 157 159 159 158 162